[[{"header":{"parameterUnit":"m.s-1","parameterCategory":1,"la1":30.2991,"la2":30.254,"lo1":-89.0895,"lo2":-89.0444,"dy":0.0017,"dx":0.0017,"nx":28,"ny":28,"refTime":"2025-04-25T21:00:00:Z","depth":0,"parameterNumber":2,"parameterNumberName":"U-component_of_WINDS"},"data":[0,0,0,0,0,0,0,0,0,0,0,0,0,0,0,0,0,0,0,0,0,0,0,0,0,0,0,0,0,0,0,0,0,0,0,0,0,0,0,0,0,0,0,0,0,0,0,0,0,0,0,0,0,0,0,0,0,0,-0.9243,-0.9244,0,-0.9328,-0.9329,-0.933,-0.9372,-0.9372,-0.9372,-0.9372,-0.9462,-0.9465,-0.9467,0,0,0,0,0,0,0,0,0,0,0,0,0,-0.9123,-0.9125,-0.9243,-0.9244,-0.9245,-0.9327,-0.9329,-0.933,-0.9372,-0.9372,-0.9372,-0.9372,-0.9462,-0.9464,-0.9467,0,0,0,0,0,0,0,0,0,0,0,0,0,-0.9188,-0.9126,-0.9243,-0.9276,-0.928,-0.9327,-0.9329,-0.933,-0.9372,-0.9372,-0.9372,-0.9372,-0.9461,-0.9464,-0.9468,-0.949,0,0,-0.9479,-0.948,0,0,0,0,0,0,0,0,-0.9184,-0.9193,-0.927,-0.9274,-0.9278,-0.9339,-0.932,-0.9384,-0.9372,-0.9337,-0.9372,-0.9372,-0.9422,-0.9429,-0.9444,-0.9494,-0.9498,-0.9479,-0.9481,-0.9483,-0.9484,0,0,0,0,0,0,0,-0.918,-0.9189,-0.9277,-0.9271,-0.9276,-0.9288,-0.9298,-0.9332,-0.9378,-0.934,-0.9344,-0.9353,-0.9424,-0.9441,-0.9447,-0.9499,-0.9479,-0.9482,-0.9484,-0.9486,-0.9573,-0.9573,0,0,0,0,0,0,-0.9169,-0.9185,-0.9274,-0.9279,-0.923,-0.9291,-0.9301,-0.932,-0.9378,-0.9387,-0.9353,-0.9354,-0.9435,-0.9443,-0.945,-0.9481,-0.9483,-0.9486,-0.9488,-0.9573,-0.9573,-0.9573,0,0,0,0,0,0,-0.9167,-0.9177,-0.9271,-0.9233,-0.9246,-0.9293,-0.9313,-0.9321,-0.9338,-0.9387,-0.9396,-0.9361,-0.9435,-0.9445,-0.948,-0.9484,-0.9488,-0.9491,-0.9573,-0.9573,-0.9573,-0.9541,0,0,0,0,0,0,-0.9163,-0.9176,-0.9183,-0.9233,-0.9248,-0.9297,-0.9314,-0.9323,-0.9344,-0.9347,-0.9398,-0.9406,-0.9436,-0.9474,-0.9483,-0.9489,-0.9494,-0.9572,-0.9573,-0.9573,-0.9542,-0.954,-0.9538,0,0,0,0,0,-0.9159,-0.9171,-0.9183,-0.9194,-0.9258,-0.9297,-0.9306,-0.9338,-0.9344,-0.9353,-0.9385,-0.9405,-0.9482,-0.9477,-0.9488,-0.9495,-0.9572,-0.9573,-0.9573,-0.9542,-0.954,-0.9538,0,0,0,0,0,0,-0.9121,-0.9178,-0.9192,-0.9221,-0.9254,-0.9304,-0.9316,-0.9335,-0.9368,-0.9369,-0.941,-0.9421,-0.9452,-0.9478,-0.9471,-0.9521,-0.953,-0.9532,-0.9503,-0.9501,-0.9499,-0.9493,-0.9497,0,0,0,0,0,-0.9116,-0.9142,-0.9191,-0.9212,-0.9227,-0.9269,-0.9287,-0.931,-0.9346,-0.936,-0.9395,-0.943,-0.9463,-0.9483,-0.9516,-0.9546,-0.9559,-0.9556,-0.9555,-0.9553,-0.9555,-0.9574,-0.9574,-0.9574,-0.9574,-0.9574,0,0,-0.9107,-0.9141,-0.9155,-0.9205,-0.9233,-0.926,-0.928,-0.9308,-0.9329,-0.9365,-0.9399,-0.9426,-0.9469,-0.9501,-0.9517,-0.9523,-0.9558,-0.9554,-0.9552,-0.9555,-0.9575,-0.9574,-0.9574,-0.9575,-0.9575,-0.9574,0,0,-0.9103,-0.913,-0.9151,-0.9179,-0.9221,-0.9249,-0.9254,-0.9302,-0.9321,-0.9356,-0.9384,-0.9411,-0.9465,-0.9495,-0.9517,-0.9526,-0.9546,-0.9536,-0.9528,-0.9546,-0.9546,-0.9546,-0.955,-0.9551,-0.9538,-0.9538,-0.9538,0,-0.9085,-0.9126,-0.916,-0.9186,-0.9208,-0.9241,-0.9264,-0.929,-0.9341,-0.9356,-0.9362,-0.9433,-0.9464,-0.9504,-0.9506,-0.9523,-0.9531,-0.953,-0.9543,-0.9544,-0.9544,-0.9549,-0.955,-0.9536,-0.9536,-0.9537,-0.9537,0,-0.9103,-0.9131,-0.9143,-0.9191,-0.9214,-0.9239,-0.9278,-0.9298,-0.9319,-0.9347,-0.9384,-0.9422,-0.9464,-0.9475,-0.9496,-0.952,-0.9522,-0.9535,-0.9545,-0.9542,-0.9547,-0.9549,-0.9534,-0.9535,-0.9535,-0.9535,0,0,-0.9077,-0.9144,-0.9148,-0.917,-0.922,-0.9243,-0.927,-0.931,-0.9327,-0.9362,-0.9386,-0.9433,-0.9445,-0.9471,-0.9496,-0.9512,-0.9518,-0.9523,-0.9525,-0.9521,-0.9547,-0.9537,-0.9539,-0.9532,-0.9532,-0.9532,-0.9544,0,-0.908,-0.9128,-0.916,-0.9196,-0.9223,-0.9256,-0.928,-0.9314,-0.9341,-0.937,-0.9401,-0.9433,-0.9447,-0.9462,-0.948,-0.9513,-0.9524,-0.9513,-0.9556,-0.9557,-0.9544,-0.9541,-0.953,-0.9539,-0.9546,-0.9546,-0.9547,0,-0.909,-0.9123,-0.9161,-0.9209,-0.9221,-0.9242,-0.9282,-0.9308,-0.9349,-0.9367,-0.9396,-0.9422,-0.9454,-0.9461,-0.9507,-0.9499,-0.9519,-0.9538,-0.9539,-0.9545,-0.9551,-0.9547,-0.9543,-0.9544,-0.955,-0.955,-0.9549,0,-0.9068,-0.9122,-0.9152,-0.917,-0.9226,-0.924,-0.9265,-0.9305,-0.9327,-0.9363,-0.9379,-0.9418,-0.9439,-0.947,-0.9507,-0.9509,-0.9549,-0.9559,-0.9567,-0.9566,-0.9573,-0.9572,-0.9573,-0.9586,-0.9586,-0.9586,-0.9586,0,-0.9068,-0.909,-0.9142,-0.9161,-0.9188,-0.9226,-0.9251,-0.9279,-0.9315,-0.9341,-0.9372,-0.9396,-0.9443,-0.9473,-0.9503,-0.9537,-0.9546,-0.9563,-0.9571,-0.9561,-0.9558,-0.9574,-0.9574,-0.9586,-0.9586,-0.9586,-0.9586,0,-0.9047,-0.9083,-0.9118,-0.9169,-0.9182,-0.9199,-0.9244,-0.9264,-0.9294,-0.9326,-0.9336,-0.9383,-0.942,-0.946,-0.9511,-0.9531,-0.9564,-0.9574,-0.955,-0.9554,-0.956,-0.9559,-0.957,-0.9574,-0.9584,-0.9584,-0.9584,0,-0.9044,-0.9062,-0.9115,-0.9134,-0.9157,-0.9187,-0.921,-0.9249,-0.9272,-0.9321,-0.9336,-0.9375,-0.9409,-0.9468,-0.9508,-0.9548,-0.9559,-0.9561,-0.9566,-0.9555,-0.956,-0.9559,-0.9561,-0.9559,-0.9559,-0.9558,-0.9558,0,-0.9037,-0.9054,-0.9085,-0.9122,-0.9149,-0.9181,-0.9214,-0.9228,-0.9274,-0.9299,-0.9337,-0.9363,-0.9416,-0.9456,-0.9501,-0.9528,-0.9551,-0.9556,-0.956,-0.955,-0.9535,-0.9544,-0.9545,-0.9556,-0.9556,-0.9556,-0.9556,-0.9556,-0.9026,-0.9043,-0.9083,-0.9117,-0.9146,-0.9177,-0.9199,-0.9231,-0.9263,-0.9308,-0.9329,-0.9368,-0.941,-0.9473,-0.95,-0.9532,-0.9539,-0.9544,-0.9546,-0.9547,-0.9544,-0.953,-0.9541,-0.9541,-0.9541,-0.9541,-0.9541,0,-0.902,-0.9047,-0.9078,-0.9123,-0.9151,-0.9169,-0.9208,-0.923,-0.9263,-0.9299,-0.9332,-0.9377,-0.9416,-0.9459,-0.9501,-0.9519,-0.9531,-0.9529,-0.9528,-0.9534,-0.9536,-0.9528,-0.9518,-0.9518,-0.9518,-0.9518,-0.9518,-0.9518,-0.902,-0.9051,-0.9073,-0.912,-0.9148,-0.9185,-0.9206,-0.9235,-0.9264,-0.9313,-0.9345,-0.9372,-0.9412,-0.9458,-0.9495,-0.9507,-0.9522,-0.9517,-0.9532,-0.9532,-0.9534,-0.9536,-0.9529,-0.9519,-0.9519,-0.9528,-0.9528,-0.9528]},{"header":{"parameterUnit":"m.s-1","parameterCategory":1,"la1":30.2991,"la2":30.254,"lo1":-89.0895,"lo2":-89.0444,"dy":0.0017,"dx":0.0017,"nx":28,"ny":28,"refTime":"2025-04-25T21:00:00:Z","depth":0,"parameterNumber":3,"parameterNumberName":"V-component_of_WINDS"},"data":[0,0,0,0,0,0,0,0,0,0,0,0,0,0,0,0,0,0,0,0,0,0,0,0,0,0,0,0,0,0,0,0,0,0,0,0,0,0,0,0,0,0,0,0,0,0,0,0,0,0,0,0,0,0,0,0,0,0,4.7187,4.7186,0,4.7154,4.7154,4.7154,4.7135,4.7135,4.7135,4.7135,4.7098,4.7098,4.7097,0,0,0,0,0,0,0,0,0,0,0,0,0,4.723,4.723,4.7187,4.7186,4.7186,4.7154,4.7154,4.7154,4.7135,4.7135,4.7135,4.7135,4.7099,4.7098,4.7096,0,0,0,0,0,0,0,0,0,0,0,0,0,4.7206,4.7229,4.7187,4.7173,4.7172,4.7155,4.7154,4.7153,4.7135,4.7135,4.7135,4.7135,4.7099,4.7098,4.7096,4.7089,0,0,4.7092,4.7091,0,0,0,0,0,0,0,0,4.7207,4.7204,4.7176,4.7174,4.7172,4.7149,4.7156,4.7132,4.7135,4.7149,4.7135,4.7135,4.7115,4.7112,4.7106,4.7087,4.7086,4.7092,4.7091,4.709,4.709,0,0,0,0,0,0,0,4.7209,4.7206,4.7174,4.7175,4.7173,4.7168,4.7164,4.7151,4.7133,4.7148,4.7147,4.7143,4.7114,4.7108,4.7105,4.7085,4.7092,4.7091,4.709,4.7089,4.7059,4.7059,0,0,0,0,0,0,4.7213,4.7207,4.7175,4.7173,4.719,4.7167,4.7163,4.7157,4.7133,4.7129,4.7143,4.7142,4.711,4.7107,4.7104,4.7094,4.709,4.7089,4.7088,4.7059,4.7059,4.7059,0,0,0,0,0,0,4.7214,4.7211,4.7176,4.719,4.7185,4.7167,4.7159,4.7156,4.7149,4.7129,4.7126,4.714,4.711,4.7106,4.7093,4.7093,4.7089,4.7087,4.7059,4.7059,4.7059,4.7075,0,0,0,0,0,0,4.7216,4.7211,4.7209,4.719,4.7184,4.7167,4.7159,4.7155,4.7148,4.7146,4.7126,4.7122,4.711,4.7096,4.7092,4.7091,4.7086,4.7059,4.7059,4.7059,4.7074,4.7075,4.7076,0,0,0,0,0,4.7217,4.7213,4.7209,4.7205,4.7181,4.7167,4.7164,4.7151,4.7148,4.7145,4.7132,4.7123,4.7094,4.7094,4.709,4.7089,4.7059,4.7059,4.7059,4.7074,4.7075,4.7076,0,0,0,0,0,0,4.7231,4.7211,4.7205,4.7195,4.7183,4.7164,4.716,4.7152,4.714,4.7139,4.7122,4.7117,4.7107,4.7096,4.7098,4.7081,4.7075,4.7075,4.7088,4.7089,4.709,4.7092,4.7085,0,0,0,0,0,4.7233,4.7225,4.7207,4.72,4.7194,4.7178,4.7171,4.7163,4.7149,4.7143,4.713,4.7116,4.7104,4.7096,4.7083,4.7073,4.7068,4.707,4.7071,4.7072,4.7071,4.7065,4.7066,4.706,4.706,4.706,0,0,4.7237,4.7225,4.722,4.7202,4.7192,4.7182,4.7174,4.7164,4.7157,4.7141,4.7129,4.7119,4.7102,4.7091,4.7085,4.7082,4.7072,4.7072,4.7073,4.7072,4.7065,4.7066,4.7067,4.706,4.706,4.706,0,0,4.7239,4.7229,4.7223,4.7213,4.7198,4.7188,4.7186,4.7168,4.7161,4.7149,4.7138,4.7128,4.7107,4.7096,4.7088,4.7088,4.7079,4.7084,4.7089,4.7084,4.7084,4.7085,4.7084,4.7085,4.7084,4.7084,4.7084,0,4.7246,4.7232,4.722,4.7211,4.7204,4.7191,4.7184,4.7175,4.7156,4.715,4.7148,4.7122,4.711,4.7096,4.7096,4.709,4.7087,4.7086,4.7085,4.7086,4.7086,4.7085,4.7085,4.7084,4.7084,4.7084,4.7084,0,4.7241,4.7231,4.7228,4.7212,4.7204,4.7196,4.7182,4.7175,4.7167,4.7157,4.7145,4.713,4.7115,4.7111,4.7102,4.7096,4.7095,4.7089,4.7083,4.7087,4.7087,4.7086,4.7085,4.7085,4.7085,4.7085,0,0,4.7249,4.7228,4.7227,4.722,4.7203,4.7195,4.7187,4.7173,4.7168,4.7155,4.7148,4.7131,4.7126,4.7117,4.7107,4.7102,4.7103,4.7097,4.7096,4.7099,4.7096,4.71,4.71,4.7098,4.7097,4.7097,4.7097,0,4.7249,4.7235,4.7224,4.7213,4.7205,4.7193,4.7186,4.7174,4.7165,4.7155,4.7144,4.7133,4.7127,4.7122,4.7117,4.7104,4.7102,4.7104,4.7089,4.7089,4.7094,4.71,4.7104,4.7104,4.7097,4.7097,4.7097,0,4.7247,4.7237,4.7225,4.7211,4.7206,4.72,4.7187,4.7179,4.7166,4.7159,4.7149,4.714,4.713,4.7126,4.7112,4.7113,4.7107,4.71,4.7099,4.7097,4.7093,4.7097,4.7104,4.7104,4.7096,4.7096,4.7096,0,4.7254,4.7238,4.7229,4.7223,4.7206,4.7202,4.7194,4.7181,4.7174,4.7162,4.7157,4.7145,4.7137,4.7127,4.7114,4.7112,4.7101,4.7096,4.7095,4.7095,4.7093,4.7093,4.7098,4.7089,4.7089,4.7089,4.7089,0,4.7255,4.7249,4.7233,4.7227,4.722,4.7208,4.72,4.7191,4.718,4.7172,4.7161,4.7154,4.7137,4.7128,4.7117,4.7107,4.7104,4.7098,4.7095,4.7099,4.71,4.7094,4.7093,4.7089,4.7089,4.7089,4.7089,0,4.7262,4.7251,4.7241,4.7226,4.7222,4.7217,4.7204,4.7198,4.7188,4.7179,4.7175,4.716,4.7149,4.7135,4.7118,4.7112,4.7102,4.7098,4.7107,4.7106,4.7105,4.7106,4.7107,4.7106,4.7098,4.7098,4.7098,0,4.7263,4.7258,4.7243,4.7238,4.7231,4.7222,4.7215,4.7203,4.7196,4.7182,4.7177,4.7165,4.7155,4.7137,4.7124,4.7111,4.7107,4.7108,4.7105,4.7109,4.7107,4.7107,4.7107,4.7109,4.7109,4.7109,4.7109,0,4.7266,4.7261,4.7253,4.7242,4.7235,4.7226,4.7216,4.7212,4.7198,4.7191,4.718,4.7172,4.7156,4.7144,4.713,4.7121,4.7113,4.7111,4.711,4.7113,4.7118,4.7116,4.711,4.711,4.711,4.711,4.711,4.711,4.727,4.7265,4.7254,4.7245,4.7237,4.7228,4.7223,4.7213,4.7204,4.7191,4.7184,4.7173,4.7161,4.7141,4.7133,4.7124,4.7121,4.7119,4.7119,4.7119,4.712,4.7121,4.7121,4.7121,4.7121,4.7121,4.7121,0,4.7272,4.7265,4.7257,4.7245,4.7237,4.7232,4.7221,4.7215,4.7206,4.7196,4.7186,4.7174,4.7162,4.7149,4.7137,4.7132,4.7128,4.7129,4.7129,4.7127,4.7123,4.7125,4.7133,4.7133,4.7133,4.7133,4.7133,4.7133,4.7273,4.7265,4.7259,4.7247,4.7239,4.723,4.7224,4.7216,4.7208,4.7195,4.7186,4.7178,4.7166,4.7153,4.7142,4.7139,4.7134,4.7137,4.7132,4.7128,4.7127,4.7126,4.7128,4.7136,4.7136,4.7137,4.7137,4.7137]}]]